Year,Month,Day,Hour,Minute,Value (Times are PST for temperature in C)
2015,04,20,09,58,16.90
2015,04,20,09,59,16.90
2015,04,20,10,00,17.00
2015,04,20,10,01,17.00
2015,04,20,10,02,17.10
2015,04,20,10,03,17.10
2015,04,20,10,04,17.10
2015,04,20,10,05,17.10
2015,04,20,10,06,17.20
2015,04,20,10,07,17.20
2015,04,20,10,08,17.30
2015,04,20,10,09,17.30
2015,04,20,10,10,17.40
2015,04,20,10,11,17.40
2015,04,20,10,12,17.30
2015,04,20,10,13,17.30
2015,04,20,10,14,17.30
2015,04,20,10,15,17.30
2015,04,20,10,16,17.30
2015,04,20,10,17,17.30
2015,04,20,10,18,17.40
2015,04,20,10,19,17.40
2015,04,20,10,20,17.40
2015,04,20,10,21,17.40
2015,04,20,10,22,17.50
2015,04,20,10,23,17.50
2015,04,20,10,24,17.60
2015,04,20,10,25,17.70
2015,04,20,10,26,17.70
2015,04,20,10,27,17.80
2015,04,20,10,28,17.80
2015,04,20,10,29,17.80
2015,04,20,10,30,17.90
2015,04,20,10,31,18.10
2015,04,20,10,32,18.20
2015,04,20,10,33,18.20
2015,04,20,10,34,18.30
2015,04,20,10,35,18.30
2015,04,20,10,36,18.30
2015,04,20,10,37,18.40
2015,04,20,10,38,18.40
2015,04,20,10,39,18.40
2015,04,20,10,40,18.50
2015,04,20,10,41,18.60
2015,04,20,10,42,18.60
2015,04,20,10,43,18.70
2015,04,20,10,44,18.70
2015,04,20,10,45,18.70
2015,04,20,10,46,18.60
2015,04,20,10,47,18.60
2015,04,20,10,48,18.60
2015,04,20,10,49,18.50
2015,04,20,10,50,18.50
2015,04,20,10,51,18.50
2015,04,20,10,52,18.60
2015,04,20,10,53,18.60
2015,04,20,10,54,18.70
2015,04,20,10,55,18.80
2015,04,20,10,56,18.80
2015,04,20,10,57,18.90
2015,04,20,10,58,19.00
2015,04,20,10,59,19.00
2015,04,20,11,00,19.10
2015,04,20,11,01,19.10
2015,04,20,11,02,19.00
2015,04,20,11,03,19.00
2015,04,20,11,04,18.90
2015,04,20,11,05,18.90
2015,04,20,11,06,18.90
2015,04,20,11,07,19.00
2015,04,20,11,08,19.00
2015,04,20,11,09,19.10
2015,04,20,11,10,19.20
2015,04,20,11,11,19.20
2015,04,20,11,12,19.20
2015,04,20,11,13,19.20
2015,04,20,11,14,19.20
2015,04,20,11,15,19.20
2015,04,20,11,16,19.20
2015,04,20,11,17,19.30
2015,04,20,11,18,19.30
2015,04,20,11,19,19.30
2015,04,20,11,20,19.30
2015,04,20,11,21,19.30
2015,04,20,11,22,19.30
2015,04,20,11,23,19.30
2015,04,20,11,24,19.30
2015,04,20,11,25,19.30
2015,04,20,11,26,19.30
2015,04,20,11,27,19.30
2015,04,20,11,28,19.30
2015,04,20,11,29,19.30
2015,04,20,11,30,19.30
2015,04,20,11,31,19.30
2015,04,20,11,32,19.40
2015,04,20,11,33,19.30
2015,04,20,11,34,19.30
2015,04,20,11,35,19.30
2015,04,20,11,36,19.30
2015,04,20,11,37,19.40
2015,04,20,11,38,19.50
2015,04,20,11,39,19.60
2015,04,20,11,40,19.60
2015,04,20,11,41,19.60
2015,04,20,11,42,19.70
2015,04,20,11,43,19.70
2015,04,20,11,44,19.60
2015,04,20,11,45,19.60
2015,04,20,11,46,19.60
2015,04,20,11,47,19.50
2015,04,20,11,48,19.40
2015,04,20,11,49,19.40
2015,04,20,11,50,19.30
2015,04,20,11,51,19.30
2015,04,20,11,52,19.40
2015,04,20,11,53,19.50
2015,04,20,11,54,19.60
2015,04,20,11,55,19.60
2015,04,20,11,56,19.60
2015,04,20,11,57,19.60
2015,04,20,11,58,19.60
2015,04,20,11,59,19.60
2015,04,20,12,00,19.60
2015,04,20,12,01,19.70
2015,04,20,12,02,19.70
2015,04,20,12,03,19.70
2015,04,20,12,04,19.80
2015,04,20,12,05,19.90
2015,04,20,12,06,20.00
2015,04,20,12,07,20.10
2015,04,20,12,08,20.20
2015,04,20,12,09,20.20
2015,04,20,12,10,20.00
2015,04,20,12,11,19.90
2015,04,20,12,12,19.90
2015,04,20,12,13,19.80
2015,04,20,12,14,19.80
2015,04,20,12,15,19.80
2015,04,20,12,16,19.80
2015,04,20,12,17,19.80
2015,04,20,12,18,19.80
2015,04,20,12,19,19.80
2015,04,20,12,20,19.80
2015,04,20,12,21,19.80
2015,04,20,12,22,19.90
2015,04,20,12,23,19.90
2015,04,20,12,24,20.00
2015,04,20,12,25,20.10
2015,04,20,12,26,20.20
2015,04,20,12,27,20.30
2015,04,20,12,28,20.40
2015,04,20,12,29,20.50
2015,04,20,12,30,20.70
2015,04,20,12,31,20.80
2015,04,20,12,32,20.80
2015,04,20,12,33,20.80
2015,04,20,12,34,20.80
2015,04,20,12,35,20.70
2015,04,20,12,36,20.40
2015,04,20,12,37,20.30
2015,04,20,12,38,20.20
2015,04,20,12,39,20.20
2015,04,20,12,40,20.20
2015,04,20,12,41,20.30
2015,04,20,12,42,20.30
2015,04,20,12,43,20.30
2015,04,20,12,44,20.30
2015,04,20,12,45,20.20
2015,04,20,12,46,20.30
2015,04,20,12,47,20.30
2015,04,20,12,48,20.30
2015,04,20,12,49,20.30
2015,04,20,12,50,20.30
2015,04,20,12,51,20.30
2015,04,20,12,52,20.40
2015,04,20,12,53,20.40
2015,04,20,12,54,20.40
2015,04,20,12,55,20.40
2015,04,20,12,56,20.40
2015,04,20,12,57,20.50
2015,04,20,12,58,20.50
2015,04,20,12,59,20.60
2015,04,20,13,00,20.60
2015,04,20,13,01,20.60
2015,04,20,13,02,20.70
2015,04,20,13,03,20.80
2015,04,20,13,04,20.90
2015,04,20,13,05,20.90
2015,04,20,13,06,21.00
2015,04,20,13,07,21.00
2015,04,20,13,08,20.90
2015,04,20,13,09,20.90
2015,04,20,13,10,20.80
2015,04,20,13,11,20.70
2015,04,20,13,12,20.50
2015,04,20,13,13,20.40
2015,04,20,13,14,20.40
2015,04,20,13,15,20.50
2015,04,20,13,16,20.60
2015,04,20,13,17,20.70
2015,04,20,13,18,20.80
2015,04,20,13,19,20.80
2015,04,20,13,20,20.80
2015,04,20,13,21,20.90
2015,04,20,13,22,21.00
2015,04,20,13,23,21.00
2015,04,20,13,24,21.00
2015,04,20,13,25,21.10
2015,04,20,13,26,21.00
2015,04,20,13,27,20.90
2015,04,20,13,28,20.90
2015,04,20,13,29,21.00
2015,04,20,13,30,21.10
2015,04,20,13,31,21.20
2015,04,20,13,32,21.30
2015,04,20,13,33,21.50
2015,04,20,13,34,21.60
2015,04,20,13,35,21.60
2015,04,20,13,36,21.70
2015,04,20,13,37,21.70
2015,04,20,13,38,21.80
2015,04,20,13,39,21.80
2015,04,20,13,40,21.90
2015,04,20,13,41,22.00
2015,04,20,13,42,22.00
2015,04,20,13,43,21.90
2015,04,20,13,44,21.80
2015,04,20,13,45,21.70
2015,04,20,13,46,21.70
2015,04,20,13,47,21.70
2015,04,20,13,48,21.60
2015,04,20,13,49,21.50
2015,04,20,13,50,21.40
2015,04,20,13,51,21.40
2015,04,20,13,52,21.40
2015,04,20,13,53,21.40
2015,04,20,13,54,21.40
2015,04,20,13,55,21.40
2015,04,20,13,56,21.40
2015,04,20,13,57,21.40
2015,04,20,13,58,21.40
2015,04,20,13,59,21.40
2015,04,20,14,00,21.50
2015,04,20,14,01,21.50
2015,04,20,14,02,21.60
2015,04,20,14,03,21.60
2015,04,20,14,04,21.60
2015,04,20,14,05,21.60
2015,04,20,14,06,21.60
2015,04,20,14,07,21.50
2015,04,20,14,08,21.40
2015,04,20,14,09,21.30
2015,04,20,14,10,21.30
2015,04,20,14,11,21.30
2015,04,20,14,12,21.40
2015,04,20,14,13,21.40
2015,04,20,14,14,21.50
2015,04,20,14,15,21.50
2015,04,20,14,16,21.60
2015,04,20,14,17,21.70
2015,04,20,14,18,21.70
2015,04,20,14,19,21.80
2015,04,20,14,20,21.80
2015,04,20,14,21,21.80
2015,04,20,14,22,21.90
2015,04,20,14,23,22.10
2015,04,20,14,24,22.20
2015,04,20,14,25,22.20
2015,04,20,14,26,22.20
2015,04,20,14,27,22.10
2015,04,20,14,28,22.00
2015,04,20,14,29,21.90
2015,04,20,14,30,21.90
2015,04,20,14,31,21.80
2015,04,20,14,32,21.70
2015,04,20,14,33,21.60
2015,04,20,14,34,21.60
2015,04,20,14,35,21.70
2015,04,20,14,36,21.80
2015,04,20,14,37,21.90
2015,04,20,14,38,22.00
2015,04,20,14,39,22.10
2015,04,20,14,40,22.10
2015,04,20,14,41,22.20
2015,04,20,14,42,22.20
2015,04,20,14,43,22.30
2015,04,20,14,44,22.40
2015,04,20,14,45,22.50
2015,04,20,14,46,22.50
2015,04,20,14,47,22.40
2015,04,20,14,48,22.40
2015,04,20,14,49,22.30
2015,04,20,14,50,22.20
2015,04,20,14,51,22.20
2015,04,20,14,52,22.20
2015,04,20,14,53,22.10
2015,04,20,14,54,22.10
2015,04,20,14,55,22.00
2015,04,20,14,56,21.90
2015,04,20,14,57,21.90
2015,04,20,14,58,21.80
2015,04,20,14,59,21.80
2015,04,20,15,00,21.80
2015,04,20,15,01,21.70
2015,04,20,15,02,21.70
2015,04,20,15,03,21.60
2015,04,20,15,04,21.60
2015,04,20,15,05,21.60
2015,04,20,15,06,21.60
2015,04,20,15,07,21.60
2015,04,20,15,08,21.70
2015,04,20,15,09,21.80
2015,04,20,15,10,21.80
2015,04,20,15,11,21.80
2015,04,20,15,12,21.80
2015,04,20,15,13,21.80
2015,04,20,15,14,21.90
2015,04,20,15,15,21.90
2015,04,20,15,16,22.00
2015,04,20,15,17,22.20
2015,04,20,15,18,22.30
2015,04,20,15,19,22.40
2015,04,20,15,20,22.50
2015,04,20,15,21,22.50
2015,04,20,15,22,22.60
2015,04,20,15,23,22.60
2015,04,20,15,24,22.70
2015,04,20,15,25,22.60
2015,04,20,15,26,22.60
2015,04,20,15,27,22.60
2015,04,20,15,28,22.60
2015,04,20,15,29,22.50
2015,04,20,15,30,22.50
2015,04,20,15,31,22.40
2015,04,20,15,32,22.30
2015,04,20,15,33,22.20
2015,04,20,15,34,22.20
2015,04,20,15,35,22.20
2015,04,20,15,36,22.20
2015,04,20,15,37,22.30
2015,04,20,15,38,22.40
2015,04,20,15,39,22.50
2015,04,20,15,40,22.60
2015,04,20,15,41,22.70
2015,04,20,15,42,22.70
2015,04,20,15,43,22.70
2015,04,20,15,44,22.70
2015,04,20,15,45,22.70
2015,04,20,15,46,22.70
2015,04,20,15,47,22.60
2015,04,20,15,48,22.50
2015,04,20,15,49,22.30
2015,04,20,15,50,22.20
2015,04,20,15,51,22.10
2015,04,20,15,52,22.10
2015,04,20,15,53,22.10
2015,04,20,15,54,22.10
2015,04,20,15,55,22.20
2015,04,20,15,56,22.30
2015,04,20,15,57,22.30
2015,04,20,15,58,22.30
2015,04,20,15,59,22.40
2015,04,20,16,00,22.50
2015,04,20,16,01,22.50
2015,04,20,16,02,22.50
2015,04,20,16,03,22.50
2015,04,20,16,04,22.50
2015,04,20,16,05,22.40
2015,04,20,16,06,22.40
2015,04,20,16,07,22.40
2015,04,20,16,08,22.40
2015,04,20,16,09,22.40
2015,04,20,16,10,22.50
2015,04,20,16,11,22.60
2015,04,20,16,12,22.60
2015,04,20,16,13,22.60
2015,04,20,16,14,22.60
2015,04,20,16,15,22.70
2015,04,20,16,16,22.70
2015,04,20,16,17,22.70
2015,04,20,16,18,22.70
2015,04,20,16,19,22.70
2015,04,20,16,20,22.60
2015,04,20,16,21,22.60
2015,04,20,16,22,22.60
2015,04,20,16,23,22.60
2015,04,20,16,24,22.70
2015,04,20,16,25,22.70
2015,04,20,16,26,22.70
2015,04,20,16,27,22.70
2015,04,20,16,28,22.60
2015,04,20,16,29,22.60
2015,04,20,16,30,22.60
2015,04,20,16,31,22.60
2015,04,20,16,32,22.50
2015,04,20,16,33,22.50
2015,04,20,16,34,22.40
2015,04,20,16,35,22.40
2015,04,20,16,36,22.40
2015,04,20,16,37,22.40
2015,04,20,16,38,22.40
2015,04,20,16,39,22.40
2015,04,20,16,40,22.30
2015,04,20,16,41,22.30
2015,04,20,16,42,22.30
2015,04,20,16,43,22.30
2015,04,20,16,44,22.30
2015,04,20,16,45,22.30
2015,04,20,16,46,22.40
2015,04,20,16,47,22.40
2015,04,20,16,48,22.40
2015,04,20,16,49,22.30
2015,04,20,16,50,22.30
2015,04,20,16,51,22.30
2015,04,20,16,52,22.40
2015,04,20,16,53,22.40
2015,04,20,16,54,22.40
2015,04,20,16,55,22.40
2015,04,20,16,56,22.40
2015,04,20,16,57,22.40
2015,04,20,16,58,22.40
2015,04,20,16,59,22.50
2015,04,20,17,00,22.60
2015,04,20,17,01,22.60
2015,04,20,17,02,22.50
2015,04,20,17,03,22.50
2015,04,20,17,04,22.50
2015,04,20,17,05,22.50
2015,04,20,17,06,22.60
2015,04,20,17,07,22.60
2015,04,20,17,08,22.60
2015,04,20,17,09,22.60
2015,04,20,17,10,22.60
2015,04,20,17,11,22.60
2015,04,20,17,12,22.50
2015,04,20,17,13,22.50
2015,04,20,17,14,22.70
2015,04,20,17,15,22.80
2015,04,20,17,16,22.90
2015,04,20,17,17,22.80
2015,04,20,17,18,22.80
2015,04,20,17,19,22.90
2015,04,20,17,20,22.90
2015,04,20,17,21,23.00
2015,04,20,17,22,22.90
2015,04,20,17,23,22.60
2015,04,20,17,24,22.10
2015,04,20,17,25,21.70
2015,04,20,17,26,21.50
2015,04,20,17,27,21.30
2015,04,20,17,28,21.20
2015,04,20,17,29,21.20
2015,04,20,17,30,21.20
2015,04,20,17,31,21.20
2015,04,20,17,32,21.20
2015,04,20,17,33,21.20
2015,04,20,17,34,21.30
2015,04,20,17,35,21.20
2015,04,20,17,36,21.20
2015,04,20,17,37,21.20
2015,04,20,17,38,21.20
2015,04,20,17,39,21.10
2015,04,20,17,40,21.00
2015,04,20,17,41,20.90
2015,04,20,17,42,20.80
2015,04,20,17,43,20.80
2015,04,20,17,44,20.80
2015,04,20,17,45,20.90
2015,04,20,17,46,20.90
2015,04,20,17,47,20.90
2015,04,20,17,48,21.00
2015,04,20,17,49,21.00
2015,04,20,17,50,21.00
2015,04,20,17,51,21.10
2015,04,20,17,52,21.10
2015,04,20,17,53,21.10
2015,04,20,17,54,21.20
2015,04,20,17,55,21.20
2015,04,20,17,56,21.20
2015,04,20,17,57,21.30
2015,04,20,17,58,21.30
2015,04,20,17,59,21.30
2015,04,20,18,00,21.30
2015,04,20,18,01,21.30
2015,04,20,18,02,21.30
2015,04,20,18,03,21.30
2015,04,20,18,04,21.30
2015,04,20,18,05,21.30
2015,04,20,18,06,21.20
2015,04,20,18,07,21.20
2015,04,20,18,08,21.20
2015,04,20,18,09,21.30
2015,04,20,18,10,21.40
2015,04,20,18,11,21.50
2015,04,20,18,12,21.60
2015,04,20,18,13,21.60
2015,04,20,18,14,21.50
2015,04,20,18,15,21.50
2015,04,20,18,16,21.40
2015,04,20,18,17,21.30
2015,04,20,18,18,21.20
2015,04,20,18,19,21.20
2015,04,20,18,20,21.20
2015,04,20,18,21,21.20
2015,04,20,18,22,21.10
2015,04,20,18,23,21.10
2015,04,20,18,24,21.10
2015,04,20,18,25,21.00
2015,04,20,18,26,20.90
2015,04,20,18,27,20.90
2015,04,20,18,28,20.80
2015,04,20,18,29,20.70
2015,04,20,18,30,20.70
2015,04,20,18,31,20.70
2015,04,20,18,32,20.60
2015,04,20,18,33,20.60
2015,04,20,18,34,20.60
2015,04,20,18,35,20.60
2015,04,20,18,36,20.60
2015,04,20,18,37,20.60
2015,04,20,18,38,20.50
2015,04,20,18,39,20.50
2015,04,20,18,40,20.40
2015,04,20,18,41,20.30
2015,04,20,18,42,20.30
2015,04,20,18,43,20.20
2015,04,20,18,44,20.10
2015,04,20,18,45,20.10
2015,04,20,18,46,20.00
2015,04,20,18,47,20.00
2015,04,20,18,48,19.90
2015,04,20,18,49,19.90
2015,04,20,18,50,19.80
2015,04,20,18,51,19.80
2015,04,20,18,52,19.80
2015,04,20,18,53,19.70
2015,04,20,18,54,19.70
2015,04,20,18,55,19.60
2015,04,20,18,56,19.60
2015,04,20,18,57,19.60
2015,04,20,18,58,19.50
2015,04,20,18,59,19.50
2015,04,20,19,00,19.40
2015,04,20,19,01,19.40
2015,04,20,19,02,19.40
2015,04,20,19,03,19.40
2015,04,20,19,04,19.30
2015,04,20,19,05,19.30
2015,04,20,19,06,19.30
2015,04,20,19,07,19.30
2015,04,20,19,08,19.20
2015,04,20,19,09,19.20
2015,04,20,19,10,19.20
2015,04,20,19,11,19.20
2015,04,20,19,12,19.10
2015,04,20,19,13,19.10
2015,04,20,19,14,19.10
2015,04,20,19,15,19.10
2015,04,20,19,16,19.00
2015,04,20,19,17,19.00
2015,04,20,19,18,18.90
2015,04,20,19,19,18.90
2015,04,20,19,20,18.90
2015,04,20,19,21,18.90
2015,04,20,19,22,18.90
2015,04,20,19,23,18.90
2015,04,20,19,24,18.90
2015,04,20,19,25,18.90
2015,04,20,19,26,18.80
2015,04,20,19,27,18.80
2015,04,20,19,28,18.80
2015,04,20,19,29,18.80
2015,04,20,19,30,18.80
2015,04,20,19,31,18.80
2015,04,20,19,32,18.80
2015,04,20,19,33,18.80
2015,04,20,19,34,18.70
2015,04,20,19,35,18.70
2015,04,20,19,36,18.70
2015,04,20,19,37,18.70
2015,04,20,19,38,18.70
2015,04,20,19,39,18.70
2015,04,20,19,40,18.60
2015,04,20,19,41,18.60
2015,04,20,19,42,18.60
2015,04,20,19,43,18.60
2015,04,20,19,44,18.60
2015,04,20,19,45,18.50
2015,04,20,19,46,18.40
2015,04,20,19,47,18.30
2015,04,20,19,48,18.20
2015,04,20,19,49,18.10
2015,04,20,19,50,18.00
2015,04,20,19,51,17.90
2015,04,20,19,52,17.80
2015,04,20,19,53,17.70
2015,04,20,19,54,17.60
2015,04,20,19,55,17.60
2015,04,20,19,56,17.60
2015,04,20,19,57,17.50
2015,04,20,19,58,17.40
2015,04,20,19,59,17.40
2015,04,20,20,00,17.40
2015,04,20,20,01,17.40
2015,04,20,20,02,17.40
2015,04,20,20,03,17.40
2015,04,20,20,04,17.40
2015,04,20,20,05,17.40
2015,04,20,20,06,17.40
2015,04,20,20,07,17.40
2015,04,20,20,08,17.40
